TimeCST,TemperatureF,Dew PointF,Humidity,Sea Level PressureIn,VisibilityMPH,Wind Direction,Wind SpeedMPH,Gust SpeedMPH,PrecipitationIn,Events,Conditions,WindDirDegrees,DateUTC
12:55 AM,42.1,28.8,59,30.10,10.0,Calm,Calm,-,N/A,,Overcast,0,2012-11-26 06:55:00
1:55 AM,41.9,28.9,60,30.10,10.0,Calm,Calm,-,N/A,,Overcast,0,2012-11-26 07:55:00
2:55 AM,42.8,31.6,65,30.10,10.0,Calm,Calm,-,N/A,,Overcast,0,2012-11-26 08:55:00
3:55 AM,43.7,30.9,61,30.10,10.0,East,3.5,-,N/A,,Overcast,100,2012-11-26 09:55:00
4:55 AM,44.4,29.3,55,30.10,10.0,ESE,4.6,-,N/A,,Overcast,110,2012-11-26 10:55:00
5:55 AM,44.8,29.1,54,30.11,10.0,ESE,3.5,-,N/A,,Overcast,120,2012-11-26 11:55:00
6:55 AM,45.5,28.6,52,30.12,10.0,ESE,3.5,-,N/A,,Overcast,120,2012-11-26 12:55:00
7:55 AM,46.4,29.7,52,30.13,10.0,ESE,3.5,-,N/A,,Overcast,120,2012-11-26 13:55:00
8:26 AM,48.2,28.4,46,30.14,10.0,Variable,3.5,-,N/A,,Mostly Cloudy,0,2012-11-26 14:26:00
8:55 AM,50.5,29.3,44,30.14,10.0,SSE,4.6,-,N/A,,Overcast,160,2012-11-26 14:55:00
9:55 AM,53.1,31.1,43,30.12,10.0,SE,5.8,-,N/A,,Overcast,140,2012-11-26 15:55:00
10:55 AM,56.3,32.4,40,30.12,10.0,ESE,3.5,-,N/A,,Mostly Cloudy,110,2012-11-26 16:55:00
11:55 AM,58.1,33.4,39,30.09,10.0,Variable,3.5,-,N/A,,Overcast,0,2012-11-26 17:55:00
12:55 PM,59.9,34.9,39,30.07,10.0,Calm,Calm,-,N/A,,Scattered Clouds,0,2012-11-26 18:55:00
1:47 PM,59.0,35.6,42,30.08,10.0,Calm,Calm,-,N/A,,Light Drizzle,0,2012-11-26 19:47:00
1:55 PM,58.1,36.3,44,30.08,10.0,Calm,Calm,-,0.00,,Light Drizzle,0,2012-11-26 19:55:00
2:03 PM,57.2,39.2,51,30.08,10.0,East,6.9,-,N/A,,Overcast,90,2012-11-26 20:03:00
2:55 PM,55.2,42.6,63,30.09,10.0,SW,6.9,-,0.00,,Overcast,220,2012-11-26 20:55:00
3:03 PM,55.4,42.8,63,30.08,10.0,SW,8.1,-,N/A,,Light Drizzle,220,2012-11-26 21:03:00
3:16 PM,53.6,44.6,72,30.08,10.0,SW,5.8,-,N/A,,Overcast,220,2012-11-26 21:16:00
3:38 PM,53.6,46.4,77,30.08,10.0,SW,5.8,-,N/A,,Light Drizzle,230,2012-11-26 21:38:00
3:55 PM,53.1,47.8,82,30.09,10.0,WSW,4.6,-,0.00,,Light Drizzle,240,2012-11-26 21:55:00
4:25 PM,51.8,48.2,88,30.09,8.0,West,3.5,-,N/A,,Light Drizzle,270,2012-11-26 22:25:00
4:36 PM,51.8,50.0,94,30.10,9.0,WNW,6.9,-,N/A,,Light Drizzle,300,2012-11-26 22:36:00
4:44 PM,50.0,46.4,87,30.12,6.0,NNW,4.6,-,N/A,Rain,Light Rain,330,2012-11-26 22:44:00
4:48 PM,48.2,46.4,93,30.11,5.0,NNE,4.6,-,N/A,Rain,Rain,30,2012-11-26 22:48:00
4:55 PM,46.2,45.3,97,30.11,4.0,North,5.8,-,0.04,Rain,Rain,10,2012-11-26 22:55:00
5:19 PM,44.6,44.6,100,30.12,8.0,Variable,4.6,-,N/A,Rain,Light Rain,0,2012-11-26 23:19:00
5:44 PM,44.6,44.6,100,30.14,8.0,Variable,4.6,-,N/A,,Light Drizzle,0,2012-11-26 23:44:00
5:55 PM,44.4,44.4,100,30.13,6.0,Variable,5.8,-,0.03,Rain,Rain,0,2012-11-26 23:55:00
5:58 PM,44.6,44.6,100,30.14,6.0,Variable,4.6,-,N/A,Rain,Light Rain,0,2012-11-26 23:58:00
6:00 PM,44.6,44.6,100,30.14,6.0,NE,8.1,-,N/A,Rain,Light Rain,40,2012-11-27 00:00:00
6:15 PM,44.6,44.6,100,30.13,4.0,ENE,8.1,-,N/A,Rain,Rain,60,2012-11-27 00:15:00
6:20 PM,44.6,44.6,100,30.14,3.0,ENE,5.8,-,N/A,Rain,Heavy Rain,60,2012-11-27 00:20:00
6:46 PM,44.6,44.6,100,30.14,9.0,Calm,Calm,-,N/A,,Light Drizzle,0,2012-11-27 00:46:00
6:55 PM,45.0,45.0,100,30.14,9.0,NNE,4.6,-,0.09,,Light Drizzle,20,2012-11-27 00:55:00
7:24 PM,44.6,44.6,100,30.16,3.0,North,8.1,-,N/A,Rain,Light Rain,10,2012-11-27 01:24:00
7:55 PM,43.3,43.3,100,30.17,4.0,Variable,5.8,-,0.05,Rain,Rain,0,2012-11-27 01:55:00
8:22 PM,42.8,42.8,100,30.17,2.5,Variable,3.5,-,N/A,Rain,Heavy Rain,0,2012-11-27 02:22:00
8:28 PM,42.8,42.8,100,30.18,3.0,Variable,4.6,-,N/A,Rain,Rain,0,2012-11-27 02:28:00
8:36 PM,42.8,42.8,100,30.19,10.0,Variable,5.8,-,N/A,Rain,Light Rain,0,2012-11-27 02:36:00
8:47 PM,42.8,42.8,100,30.19,10.0,Variable,3.5,-,N/A,,Light Drizzle,0,2012-11-27 02:47:00
8:51 PM,42.8,42.8,100,30.19,10.0,Variable,4.6,-,N/A,,Overcast,0,2012-11-27 02:51:00
8:55 PM,42.6,42.6,100,30.19,10.0,Variable,6.9,-,0.13,,Overcast,0,2012-11-27 02:55:00
9:02 PM,42.8,42.8,100,30.20,10.0,Variable,4.6,-,N/A,,Overcast,0,2012-11-27 03:02:00
9:37 PM,42.8,42.8,100,30.20,9.0,Variable,4.6,-,N/A,,Light Drizzle,0,2012-11-27 03:37:00
9:45 PM,42.8,42.8,100,30.21,4.0,Variable,5.8,-,N/A,Rain,Rain,0,2012-11-27 03:45:00
9:55 PM,41.9,41.9,100,30.20,7.0,Variable,5.8,-,0.02,,Drizzle,0,2012-11-27 03:55:00
10:00 PM,41.0,41.0,100,30.20,8.0,Variable,5.8,-,N/A,,Light Drizzle,0,2012-11-27 04:00:00
10:12 PM,42.8,42.8,100,30.20,6.0,Variable,4.6,-,N/A,Rain,Rain,0,2012-11-27 04:12:00
10:22 PM,41.0,41.0,100,30.22,5.0,Variable,3.5,-,N/A,Rain,Light Rain,0,2012-11-27 04:22:00
10:36 PM,41.0,41.0,100,30.22,5.0,Variable,4.6,-,N/A,Rain,Light Rain,0,2012-11-27 04:36:00
10:48 PM,41.0,41.0,100,30.22,6.0,Variable,4.6,-,N/A,Rain,Light Rain,0,2012-11-27 04:48:00
10:52 PM,41.0,41.0,100,30.22,7.0,Variable,6.9,-,N/A,Rain,Light Rain,0,2012-11-27 04:52:00
10:55 PM,41.5,41.5,100,30.22,9.0,Variable,5.8,-,0.06,Rain,Light Rain,0,2012-11-27 04:55:00
11:15 PM,41.0,41.0,100,30.22,8.0,Variable,6.9,-,N/A,Rain,Light Rain,0,2012-11-27 05:15:00
11:46 PM,41.0,39.2,93,30.24,10.0,NNW,5.8,-,N/A,,Overcast,340,2012-11-27 05:46:00
11:52 PM,41.0,39.2,93,30.24,10.0,Variable,4.6,-,N/A,,Overcast,0,2012-11-27 05:52:00
11:55 PM,40.3,40.1,99,30.23,10.0,NNE,5.8,-,0.06,,Overcast,30,2012-11-27 05:55:00